Dewpoint
50 50 50 51 51 51 51 52 51 51 49 34 33 32 25 20 17 27 37 37 31 21 20 26 25 19 22 25 22 24 22 21 21 24 25 22 24 24 21 22 16 18 22 22 20 21 11 17 7 15 20 20 24 27 27 27 27 20 20 23 23 27 12 7 11 14 15 18 21 22 21 22 20 20 20 19 14 16 18 13 7 11 10 12 11 14 19
50 50 50 51 51 51 52 52 50 50 48 36 32 26 21 22 18 23 33 34 36 29 13 16 16 19 23 23 22 26 26 26 25 24 26 22 20 23 23 24 26 16 25 22 15 20 5 16 16 11 18 14 28 26 27 26 24 22 19 15 21 9 11 11 5 3 9 11 13 17 19 20 19 16 18 19 16 14 11 12 10 13 11 17 15 13 15
50 50 50 50 50 51 51 52 51 50 50 42 26 16 23 18 22 30 28 29 26 15 23 23 21 22 16 21 19 22 18 26 26 26 25 25 20 19 19 24 24 21 24 23 22 23 10 8 16 14 15 15 25 23 24 22 24 28 29 33 27 12 14 8 -1 -5 -2 -2 -1 3 7 7 17 21 21 19 16 15 13 12 11 11 14 18 11 14 18
49 49 49 50 50 50 51 51 52 50 50 47 33 25 21 17 5 19 23 25 26 26 26 25 23 19 14 12 15 20 16 22 28 26 25 24 24 24 23 22 24 24 25 22 23 21 24 11 9 12 12 15 24 27 21 23 27 29 29 28 23 12 18 16 11 7 7 9 11 13 16 14 9 10 17 15 17 14 10 13 11 14 12 14 19 19 18
49 49 49 49 50 50 51 51 51 49 49 45 28 24 16 20 19 13 22 26 24 21 25 25 23 14 22 14 14 12 20 18 18 28 23 25 26 27 25 22 18 15 22 22 22 24 23 20 15 12 10 12 18 23 24 25 27 30 28 26 15 9 9 15 17 14 14 13 13 14 17 14 16 15 16 14 17 16 16 17 16 18 10 15 18 21 20
49 48 49 49 49 50 50 51 50 50 49 44 28 18 23 18 9 22 22 16 12 24 16 24 21 22 23 17 21 17 17 20 7 20 26 26 25 22 23 23 25 21 18 19 11 19 22 20 14 10 11 11 13 18 26 25 27 27 24 20 15 9 7 8 13 13 18 18 17 17 18 17 17 16 16 15 16 16 17 18 19 19 14 15 16 20 18
49 49 48 49 49 49 50 50 50 50 48 42 26 20 18 19 18 20 24 14 14 20 19 26 23 23 21 21 21 17 16 12 20 18 19 22 22 23 8 15 19 25 25 19 14 20 2 5 10 12 9 13 13 10 14 25 25 23 18 17 13 10 9 9 11 15 16 16 17 17 17 18 19 18 18 18 17 18 20 20 19 20 20 20 20 20 20
48 48 48 49 49 49 50 50 50 50 47 31 21 20 16 11 18 14 24 22 18 18 20 23 23 19 21 8 13 20 20 14 22 21 17 10 16 24 20 22 25 25 24 21 9 14 12 6 6 10 9 13 11 9 13 15 19 20 18 16 17 8 10 17 12 8 15 13 17 17 19 19 17 16 17 19 19 18 19 18 19 20 20 21 21 20 21
49 48 48 48 49 49 49 49 49 48 45 19 23 19 19 18 24 26 22 17 16 21 18 16 22 16 19 19 16 23 22 20 22 21 24 18 16 21 15 18 25 24 25 24 21 22 21 15 15 18 14 12 19 12 11 17 13 16 14 15 14 8 11 8 7 8 12 13 17 16 15 17 17 16 17 19 20 16 19 17 20 19 19 20 18 18 20
49 48 48 48 48 49 49 50 49 46 42 22 22 15 21 22 24 27 27 20 17 13 18 22 16 14 18 22 20 18 19 25 21 10 23 27 28 25 21 26 21 23 22 20 24 24 25 24 23 23 21 22 21 21 19 19 18 12 11 14 12 8 9 8 8 8 8 11 16 16 15 10 5 10 15 20 22 21 21 21 22 22 21 16 17 19 17
49 49 48 48 48 48 49 49 49 45 36 33 23 23 26 23 23 24 26 20 17 16 16 15 19 16 24 26 25 24 25 22 24 10 11 24 26 26 27 25 19 19 20 23 27 28 27 27 26 25 25 24 23 23 23 22 21 18 17 14 15 10 11 11 11 7 9 11 13 13 1 -5 -4 13 22 21 15 19 19 20 21 23 22 21 20 18 19
49 49 49 48 48 48 48 49 49 46 38 31 30 26 27 26 27 24 25 21 10 13 12 9 15 22 25 25 25 24 20 21 22 27 18 23 28 27 26 24 16 15 24 26 25 26 26 27 28 25 25 24 24 25 23 22 22 24 19 15 12 13 10 9 7 9 11 11 11 8 -11 0 17 22 23 21 18 18 20 21 22 22 24 24 23 23 23
49 49 48 48 48 49 48 48 49 47 40 30 28 26 26 27 27 21 24 23 7 12 10 13 19 22 22 24 22 24 25 25 26 27 27 27 24 27 27 21 17 20 25 26 27 25 20 16 20 24 25 23 25 25 25 23 23 23 20 17 15 11 11 7 14 6 7 6 2 -6 3 12 16 13 23 26 24 23 22 22 23 25 24 24 23 23 23
49 49 48 48 48 48 49 49 49 48 43 35 32 31 29 28 29 15 16 14 10 13 10 16 18 15 21 23 22 22 23 21 19 23 24 27 25 25 28 27 30 29 29 26 24 19 16 17 8 14 9 13 14 10 25 24 23 23 22 21 20 16 9 8 11 9 4 3 5 10 12 6 11 18 22 25 18 22 19 13 17 17 23 24 22 22 22
49 49 48 48 48 48 48 49 49 48 45 39 34 32 35 32 30 20 21 26 7 16 14 3 7 17 20 24 22 17 16 18 13 15 25 27 26 27 29 29 31 29 26 23 17 20 10 10 5 5 10 5 -3 -1 24 20 23 22 21 21 19 18 11 15 4 7 7 8 10 8 6 -4 10 18 23 27 27 25 24 21 22 20 21 23 22 22 21
49 49 48 48 48 48 48 48 49 49 48 42 35 33 35 31 28 31 21 19 20 7 12 21 15 23 23 23 22 13 11 13 12 14 15 21 22 26 29 28 28 27 27 21 18 13 12 7 3 1 2 1 9 3 1 15 14 21 21 21 21 19 17 13 9 8 9 6 3 0 -2 6 11 12 17 26 28 27 24 17 17 21 22 23 22 22 23
49 49 48 48 48 48 48 48 48 49 48 46 35 34 37 33 35 33 29 21 16 3 20 26 26 25 21 18 19 18 19 14 18 10 11 12 22 26 24 27 27 26 26 17 16 13 12 10 6 4 9 11 6 3 6 9 8 8 19 19 18 15 11 11 12 10 9 3 5 6 4 9 15 19 23 27 27 24 18 10 10 19 22 25 26 25 25
49 49 49 48 48 48 48 48 48 48 48 45 38 37 35 36 33 32 25 11 5 12 21 29 23 15 14 19 19 23 21 18 20 21 17 21 26 25 24 26 23 26 28 15 16 13 11 11 9 6 9 16 11 7 7 8 3 3 6 17 14 13 13 12 15 7 11 15 8 4 12 17 19 19 20 29 27 20 9 8 11 13 23 25 27 27 27
49 49 49 48 48 48 48 48 48 48 48 48 36 33 35 35 37 33 26 22 7 -7 9 29 29 23 24 28 24 24 22 22 22 11 14 12 17 25 26 25 24 14 25 16 15 11 11 9 14 6 7 11 9 5 11 3 7 9 13 6 4 5 9 12 7 9 11 12 9 13 12 16 20 25 29 29 17 8 11 16 17 18 16 17 23 23 23
50 49 49 48 48 48 48 48 47 47 48 48 42 35 35 35 35 35 25 17 13 10 19 28 28 27 28 25 24 20 22 23 23 17 15 9 21 23 14 12 24 22 18 20 12 16 10 11 12 11 8 6 14 14 8 9 12 7 9 7 4 12 11 9 8 12 10 9 8 8 4 13 25 30 27 26 13 17 15 14 16 19 18 19 19 21 22
50 49 49 48 48 48 48 48 48 47 48 48 44 35 35 35 37 38 35 31 13 1 18 25 28 28 29 28 27 26 26 22 22 18 23 22 27 17 10 11 22 16 14 14 11 10 10 9 8 8 17 11 11 12 11 6 11 18 11 10 9 15 6 4 9 15 5 7 7 7 13 15 26 16 13 22 20 17 17 19 18 18 20 19 19 20 23
50 49 49 48 48 48 48 47 48 47 48 48 45 37 34 35 37 41 39 33 19 14 19 22 28 28 31 31 32 31 29 34 30 27 26 20 26 23 22 21 24 18 17 18 12 10 12 11 10 10 9 11 14 15 11 7 10 13 12 9 7 16 16 15 7 13 11 10 17 18 16 24 28 21 16 15 17 21 21 21 20 20 20 20 21 21 22
50 50 49 49 49 48 48 47 48 48 48 48 44 40 37 40 41 40 36 28 26 27 29 26 27 29 34 33 35 36 36 36 36 33 27 24 18 23 24 23 21 24 24 20 20 20 20 17 15 17 13 13 16 9 9 14 8 10 9 14 20 21 17 19 13 18 18 19 18 18 16 16 16 24 24 21 21 21 22 22 20 21 21 21 21 22 23
50 49 49 49 49 48 48 47 47 48 48 47 45 39 38 38 43 41 33 29 16 13 23 24 17 19 21 24 32 32 33 34 35 34 33 32 19 18 22 25 25 24 22 25 25 17 18 16 17 14 11 18 9 11 8 10 13 17 10 13 11 18 20 17 15 19 11 13 16 18 18 19 19 19 18 20 22 21 20 19 20 20 21 21 23 24 25
49 49 49 48 48 48 48 48 47 48 47 47 44 42 40 39 41 40 29 21 24 7 6 18 19 27 31 33 35 34 32 33 36 35 34 33 30 23 20 25 27 25 26 26 25 21 17 15 13 12 11 21 20 14 18 10 15 17 10 19 17 19 21 17 18 16 13 13 11 14 15 16 16 17 17 17 17 18 18 20 20 20 21 23 24 26 28
49 49 49 49 49 49 48 48 48 48 47 47 46 40 39 39 42 38 35 32 26 15 9 10 20 30 31 31 30 34 34 32 32 32 33 33 33 33 32 29 27 27 28 26 20 19 19 16 16 16 14 19 18 13 13 15 16 19 16 19 19 17 16 18 18 16 17 17 16 17 17 16 16 17 17 19 19 19 19 20 21 23 25 26 29 30 30
49 49 49 49 49 49 49 48 48 48 48 47 44 42 41 41 43 40 36 33 24 20 18 13 21 25 31 27 34 37 37 33 32 31 30 30 31 32 30 28 25 25 23 19 20 18 18 16 14 18 17 21 13 14 15 17 18 14 14 18 19 18 18 18 14 17 16 14 11 9 11 10 7 8 10 14 19 21 21 21 22 23 24 25 24 24 28
48 49 49 49 49 49 48 48 48 48 48 47 44 43 43 43 44 43 40 38 29 26 25 25 28 31 29 26 35 37 36 33 31 32 30 30 31 31 30 28 25 21 19 18 20 17 17 17 20 19 15 14 14 20 13 13 14 16 20 17 19 15 14 16 16 16 13 10 12 12 13 12 12 12 14 16 17 20 20 20 21 22 23 24 25 25 26
48 48 48 48 48 48 48 48 48 48 47 45 41 41 41 43 45 45 44 41 34 29 25 28 29 22 25 26 34 35 36 34 32 31 30 30 32 32 30 28 26 22 18 17 17 16 15 21 19 17 18 23 15 17 12 12 14 17 15 18 19 17 17 15 13 15 13 13 14 14 14 12 13 14 16 18 21 22 22 23 24 24 25 26 26 27 27
48 48 48 48 48 48 48 48 48 48 47 41 36 31 33 35 44 44 45 43 38 32 28 27 31 28 27 32 34 33 33 32 30 29 30 29 31 31 31 30 27 28 22 20 18 19 21 18 19 22 24 27 14 16 16 17 14 14 14 15 17 18 19 18 18 14 12 13 14 15 17 19 20 20 21 23 24 25 25 25 25 26 26 27 27 27 29
48 48 48 48 48 48 48 48 48 47 46 40 36 34 33 34 37 45 45 44 42 34 29 24 30 27 23 31 33 32 31 31 30 30 30 29 30 29 28 29 28 30 26 23 19 23 21 18 17 21 24 25 18 15 18 14 16 17 15 19 19 18 18 18 21 20 20 19 20 22 22 22 24 24 22 22 22 24 25 25 26 27 27 28 29 29 30
48 48 48 48 48 48 49 48 48 47 43 41 38 37 35 36 41 44 45 45 42 34 27 26 29 23 18 25 31 33 34 33 31 29 28 30 26 26 27 28 27 28 31 22 26 22 23 26 19 20 18 27 24 16 17 16 18 19 16 16 19 20 20 20 20 21 22 23 24 23 22 21 22 21 20 23 25 26 27 27 28 29 29 30 30 30 30
48 48 48 48 48 48 48 48 48 47 44 45 47 47 47 46 46 45 45 45 40 35 29 24 28 24 17 21 25 29 31 30 27 27 26 29 25 26 24 28 29 30 35 28 24 25 27 24 24 19 25 24 21 18 15 20 19 18 18 19 20 20 20 22 21 23 25 25 23 21 21 20 22 24 25 26 27 27 27 28 28 29 29 29 29 29 29
48 48 48 48 48 48 48 47 48 47 45 44 41 41 44 45 44 45 42 39 36 34 27 23 22 16 21 21 21 25 32 26 23 26 23 29 28 28 24 28 29 25 28 28 29 27 28 27 24 24 26 25 22 19 19 19 20 20 21 22 22 22 23 23 24 24 25 25 26 25 24 24 26 27 27 27 27 27 28 29 29 28 28 28 28 28 28
48 48 48 48 47 47 47 47 42 40 38 37 39 42 43 45 45 45 44 41 36 33 23 24 20 19 22 23 23 26 33 28 25 26 23 27 30 26 28 26 28 23 27 29 25 26 23 27 28 23 25 20 19 21 23 21 22 22 22 22 23 24 23 23 22 22 24 26 26 26 27 27 27 26 26 27 27 27 28 27 28 27 27 27 27 27 28
48 48 48 47 47 47 43 40 41 40 34 33 38 43 45 45 45 45 45 44 39 35 32 31 24 24 23 25 26 20 29 24 26 26 26 27 26 30 29 26 25 29 29 24 24 25 24 28 23 22 20 20 23 23 23 24 23 23 23 22 23 23 23 22 23 24 26 27 29 29 28 27 26 27 27 28 28 28 28 27 27 28 27 27 27 27 28
47 47 46 44 41 37 29 30 37 38 38 40 42 44 44 45 45 43 41 37 36 36 35 32 32 32 24 26 24 26 29 27 25 23 24 26 27 28 26 25 27 29 26 26 24 24 29 27 21 18 19 22 24 24 26 26 25 24 24 24 25 26 26 26 26 27 27 27 27 26 26 26 27 28 28 28 28 28 28 27 27 27 27 27 28 28 28
47 46 40 36 31 28 28 28 34 39 43 43 43 35 36 37 34 33 34 35 35 35 35 32 33 33 27 27 29 30 25 24 24 23 23 24 24 24 26 27 30 28 23 22 26 30 26 23 23 22 24 25 26 26 25 25 25 25 25 27 27 27 27 27 27 26 25 24 23 24 25 26 26 26 27 27 28 28 28 28 28 28 28 28 28 29 29
44 40 35 28 28 28 30 35 38 44 42 38 34 31 30 30 27 28 31 33 32 32 32 32 31 28 27 25 30 30 27 25 23 18 22 25 25 24 25 23 28 22 19 17 22 28 22 19 19 18 25 25 22 24 25 25 25 27 27 27 27 28 27 27 26 25 24 23 23 24 25 25 25 26 27 27 28 28 28 28 28 28 28 28 29 29 29
41 37 34 34 32 33 37 39 42 40 34 32 28 27 29 27 28 25 23 23 23 24 25 25 26 25 27 30 26 29 28 23 22 20 21 25 28 23 22 20 24 20 17 15 22 19 18 16 14 15 23 22 19 20 23 25 26 27 27 27 26 26 25 25 25 27 27 26 26 26 26 27 27 28 28 28 28 28 28 28 28 28 28 28 29 29 28
39 35 36 36 34 34 37 38 36 30 29 26 29 26 18 20 24 27 24 21 21 21 23 24 21 21 23 24 26 26 30 25 23 22 21 22 27 23 16 18 23 18 16 13 20 18 18 16 14 15 22 23 21 21 23 24 25 25 24 24 24 24 24 24 24 25 24 26 26 26 27 27 27 28 28 28 28 28 28 28 28 28 28 27 27 28 28
43 43 41 41 39 38 35 31 28 29 27 30 28 26 28 27 26 22 24 22 21 20 22 23 20 19 22 24 25 23 24 22 23 24 22 19 25 19 16 18 19 15 13 15 16 15 15 14 12 16 22 24 23 22 22 22 23 22 23 23 24 24 24 24 24 25 25 26 26 26 27 27 28 28 29 28 29 29 29 29 29 29 29 28 28 28 29
45 44 41 35 30 29 27 27 27 28 26 27 27 24 26 18 19 20 19 22 23 22 25 24 23 27 25 24 24 24 24 28 25 24 22 19 25 22 17 17 15 12 16 16 16 15 13 12 14 19 23 22 22 22 23 23 24 24 24 24 24 25 24 24 23 24 25 25 26 26 28 27 28 28 28 28 28 27 29 29 29 30 30 29 29 29 29
37 32 31 29 27 26 27 20 29 27 26 29 23 19 22 21 20 19 22 22 20 21 22 22 24 26 25 25 23 24 24 24 28 22 20 23 19 17 17 15 16 22 17 14 13 13 18 16 19 23 23 22 23 22 24 25 24 24 25 25 24 24 24 24 24 24 26 27 26 28 28 28 29 30 30 28 28 29 29 30 30 30 30 30 30 30 30
32 31 31 27 26 28 19 14 27 22 16 20 29 25 20 15 13 16 22 21 22 22 24 23 24 24 25 28 26 25 26 23 28 21 17 20 18 18 16 16 17 15 15 15 11 13 11 18 20 21 22 20 21 23 24 24 24 24 25 25 26 25 25 24 25 26 28 29 29 30 29 29 30 30 30 30 30 30 30 30 31 31 30 30 30 30 31
34 31 30 26 22 25 17 11 25 23 26 25 24 23 21 22 16 19 24 23 22 22 23 23 22 23 24 25 24 24 26 25 20 18 20 20 18 18 19 20 16 15 13 13 13 18 18 20 20 20 21 21 22 24 25 25 25 24 22 25 26 26 26 26 27 27 27 28 29 29 29 29 29 29 29 30 31 31 31 31 31 31 31 31 30 31 31
32 31 30 30 27 28 27 19 21 25 24 25 22 21 24 27 26 27 24 22 23 25 23 23 24 26 24 25 23 22 25 24 21 20 18 17 17 17 21 16 15 13 13 15 15 17 16 18 20 22 22 23 24 25 25 25 26 26 26 26 26 26 26 26 27 27 27 28 29 29 29 29 29 30 30 31 31 31 31 31 31 31 31 31 31 31 31
30 32 30 24 21 26 24 26 22 23 22 22 22 20 23 24 23 25 25 21 25 26 25 25 27 24 24 25 22 24 21 22 21 21 21 18 20 18 17 17 15 14 13 17 17 18 20 23 23 24 26 26 25 26 27 27 27 27 27 27 27 27 27 27 27 27 28 29 29 29 29 30 30 30 30 31 31 31 31 32 32 31 31 31 31 31 31
34 33 30 29 29 26 23 21 23 25 23 20 22 22 22 24 23 24 27 23 25 25 27 24 25 24 24 23 21 21 21 23 19 20 21 19 17 15 15 12 13 16 20 19 21 22 23 23 25 25 25 27 29 29 28 28 28 28 28 29 29 28 28 27 28 28 29 29 30 30 30 30 31 31 31 31 31 31 31 32 32 31 31 31 30 31 30
33 32 33 30 27 28 23 23 24 26 21 21 21 23 20 22 22 26 25 23 22 24 26 26 26 25 24 23 21 22 21 21 21 19 20 21 18 16 17 18 18 16 15 20 21 23 25 27 27 27 28 28 29 29 28 28 29 30 30 30 29 29 28 29 28 28 29 30 30 30 30 31 31 31 31 30 31 31 32 32 32 31 31 31 30 30 29
34 33 32 33 28 26 26 20 19 17 16 18 16 18 21 20 20 25 23 25 25 27 24 23 23 23 21 20 20 18 21 22 22 22 21 20 16 17 19 18 18 19 23 24 24 24 27 26 26 27 28 29 28 28 29 30 30 30 30 30 30 30 30 29 29 30 30 30 30 30 30 31 31 31 31 31 31 31 31 31 31 31 30 30 30 30 29
32 29 29 32 33 32 30 30 30 29 29 28 26 25 25 28 25 28 27 29 28 25 23 23 23 21 20 21 19 19 19 19 20 17 19 21 19 19 20 21 22 24 25 26 26 28 27 28 28 28 29 28 29 29 30 29 29 30 29 30 30 30 30 30 30 30 30 30 31 30 31 31 31 31 31 31 31 30 30 30 30 30 30 30 30 30 30